F3965 Weather Reports


time (UTC)temp
C
wind
direction
speed
KPH
gust
KPH
rain 1hr
cm
rain 24hr
cm
rain mn
cm
humidity
%
barometer
mb
20260507051532 7 200 3.2 8.0 0.00 0.15 0.00 67 1013.5
20260507050036 7 198 4.8 8.0 0.00 0.15 0.00 67 1013.5
20260507044531 7 167 1.6 8.0 0.00 0.15 0.00 66 1013.6
20260507043030 7 167 4.8 9.7 0.00 0.15 0.00 66 1013.8
20260507041534 7 173 1.6 8.0 0.00 0.15 0.00 66 1013.6
20260507040041 7 173 3.2 8.0 0.00 0.15 0.00 66 1013.7
20260507034540 7 173 1.6 8.0 0.00 0.15 0.00 66 1013.7
20260507033043 7 180 3.2 6.4 0.00 0.15 0.00 66 1013.9
20260507031545 7 194 1.6 6.4 0.00 0.15 0.00 66 1013.9
20260507030033 7 200 0.0 4.8 0.00 0.15 0.00 66 1013.8
20260507024534 7 200 1.6 4.8 0.00 0.18 0.00 65 1013.9
20260507023034 8 201 0.0 4.8 0.00 0.18 0.00 65 1014.0
20260507021533 8 201 1.6 6.4 0.00 0.18 0.00 65 1014.1
20260507020034 8 204 1.6 4.8 0.00 0.18 0.00 65 1014.1
20260507014541 8 205 1.6 4.8 0.00 0.18 0.00 65 1014.0
20260507013038 8 205 0.0 6.4 0.00 0.18 0.00 65 1014.2
20260507011536 8 205 1.6 6.4 0.00 0.18 0.00 64 1014.2
20260507010040 8 206 3.2 6.4 0.00 0.18 0.00 64 1014.4
20260507004532 8 211 1.6 6.4 0.00 0.18 0.00 64 1014.4
20260507003031 8 0 1.6 4.8 0.00 0.18 0.00 63 1014.4
20260507001534 8 210 1.6 4.8 0.00 0.18 0.00 63 1014.5
20260507000035 9 210 1.6 6.4 0.00 0.18 0.00 62 1014.6
20260506234530 9 0 0.0 6.4 0.00 0.18 0.00 61 1014.7
20260506233030 9 213 1.6 4.8 0.00 0.18 0.00 61 1014.7
20260506231534 9 213 1.6 4.8 0.00 0.18 0.00 61 1014.9
20260506230035 10 0 1.6 4.8 0.00 0.18 0.00 60 1014.7
20260506224531 10 214 1.6 4.8 0.00 0.18 0.00 60 1014.7
20260506223032 10 214 0.0 4.8 0.00 0.18 0.00 59 1014.9
20260506221532 10 0 1.6 3.2 0.00 0.18 0.00 58 1014.8
20260506220032 10 214 3.2 8.0 0.00 0.18 0.00 58 1015.0
20260506214535 10 219 3.2 6.4 0.00 0.18 0.18 58 1014.9
20260506213032 10 220 0.0 3.2 0.00 0.18 0.18 58 1015.1
20260506211530 10 0 0.0 8.0 0.00 0.18 0.18 58 1015.1
20260506210034 11 186 1.6 4.8 0.00 0.18 0.18 58 1015.0
20260506204530 11 186 1.6 4.8 0.00 0.18 0.18 58 1014.9
20260506203038 11 0 0.0 4.8 0.00 0.18 0.18 58 1014.8
20260506201537 11 186 1.6 4.8 0.00 0.18 0.18 57 1014.7
20260506200037 11 186 0.0 3.2 0.00 0.18 0.18 58 1014.5
20260506194531 12 186 1.6 8.0 0.00 0.20 0.18 57 1014.5
20260506193030 12 186 1.6 4.8 0.00 0.20 0.18 57 1014.2
20260506191532 12 186 1.6 6.4 0.00 0.20 0.18 57 1014.1
20260506190038 13 0 0.0 0.0 0.00 0.20 0.18 57 1014.1
20260506184543 13 0 0.0 0.0 0.00 0.30 0.18 56 1013.9
20260506183033 13 186 1.6 6.4 0.00 0.30 0.18 55 1014.1
20260506181530 14 204 1.6 6.4 0.00 0.30 0.18 54 1014.0
20260506180030 15 209 0.0 8.0 0.00 0.30 0.18 54 1013.9
20260506174529 15 0 0.0 0.0 0.00 0.33 0.18 53 1014.0
20260506173040 14 0 0.0 8.0 0.00 0.33 0.18 53 1014.1
20260506171532 13 0 0.0 0.0 0.00 0.33 0.18 54 1014.2
20260506170036 13 0 1.6 8.0 0.00 0.33 0.18 54 1014.2
20260506164533 13 0 1.6 6.4 0.00 0.33 0.18 57 1014.2
20260506163036 12 263 1.6 4.8 0.00 0.33 0.18 57 1014.3
20260506161532 12 0 0.0 6.4 0.03 0.33 0.18 57 1014.5
20260506160032 12 0 0.0 0.0 0.05 0.33 0.18 57 1014.7
20260506154532 12 0 0.0 6.4 0.05 0.36 0.15 57 1014.7
20260506153030 12 275 6.4 12.9 0.08 0.36 0.15 57 1014.8
20260506151531 12 29 0.0 11.3 0.10 0.33 0.13 57 1014.8
20260506150030 12 5 3.2 16.1 0.08 0.30 0.10 58 1014.9
20260506144534 13 340 4.8 8.0 0.08 0.46 0.08 58 1015.0
20260506143033 13 29 6.4 14.5 0.00 0.38 0.03 56 1015.0
20260506141533 14 77 6.4 27.4 0.00 0.36 0.00 53 1015.1
20260506140032 15 49 14.5 35.4 0.00 0.36 0.00 51 1014.9
20260506134532 15 42 17.7 33.8 0.00 0.64 0.00 49 1014.9
20260506133032 15 28 16.1 33.8 0.00 0.64 0.00 50 1014.9
20260506131544 15 59 12.9 35.4 0.00 0.64 0.00 50 1014.7
20260506130037 15 30 17.7 38.6 0.00 0.64 0.00 51 1014.8
20260506124529 15 344 16.1 27.4 0.00 0.64 0.00 49 1014.7
20260506123031 15 30 14.5 29.0 0.00 0.64 0.00 50 1014.5
20260506121530 15 25 14.5 25.7 0.00 0.64 0.00 49 1014.5
20260506120033 15 28 8.0 27.4 0.00 0.64 0.00 46 1014.4
20260506114534 15 44 14.5 27.4 0.00 0.64 0.00 46 1014.4
20260506113030 15 22 14.5 27.4 0.00 0.64 0.00 49 1014.5
20260506111531 15 26 12.9 27.4 0.00 0.64 0.00 49 1014.6
20260506110033 15 5 16.1 24.1 0.00 0.64 0.00 49 1014.5
20260506104533 14 59 9.7 22.5 0.00 0.64 0.00 51 1014.6
20260506103045 15 31 8.0 17.7 0.00 0.64 0.00 46 1014.4
20260506101543 15 40 6.4 14.5 0.00 0.64 0.00 46 1014.3
20260506100052 15 24 12.9 20.9 0.00 0.64 0.00 47 1014.4
20260506094533 14 34 4.8 16.1 0.00 0.64 0.00 48 1014.5
20260506093039 14 36 9.7 17.7 0.00 0.64 0.00 48 1014.4
20260506091537 14 360 6.4 17.7 0.00 0.64 0.00 48 1014.2
20260506090034 14 28 4.8 22.5 0.00 0.64 0.00 47 1014.2
20260506084540 14 5 9.7 20.9 0.00 0.64 0.00 46 1014.1
20260506083033 14 24 14.5 29.0 0.00 0.64 0.00 47 1014.2
20260506081541 13 17 12.9 24.1 0.00 0.64 0.00 47 1014.1
20260506073043 11 271 8.0 16.1 0.00 0.64 0.00 53 1014.1
20260506071536 10 282 4.8 16.1 0.00 0.64 0.00 55 1014.0
20260506061535 10 215 0.0 3.2 0.00 0.64 0.00 64 1013.8